Date,TemperatureHighF,TemperatureAvgF,TemperatureLowF,DewpointHighF,DewpointAvgF,DewpointLowF,HumidityHigh,HumidityAvg,HumidityLow,PressureMaxIn,PressureMinIn,WindSpeedMaxMPH,WindSpeedAvgMPH,GustSpeedMaxMPH,PrecipitationSumIn
2013-2-15,41.5,34.8,32.7,30.0,22.6,21.0,66,61,55,30.29,30.21,5,2,0,0.03
2013-2-16,50.8,39.1,27.9,31.0,27.1,21.0,81,63,44,30.34,30.08,12,4,0,0.00
2013-2-17,68.8,51.8,33.3,44.0,33.3,27.0,79,53,24,30.08,29.79,24,11,0,0.00
2013-2-18,71.6,57.8,45.0,56.0,43.7,30.0,81,61,38,30.02,29.63,28,15,0,0.00
2013-2-19,57.7,47.3,34.7,30.0,27.1,23.0,76,48,30,30.24,30.03,14,5,0,0.00
2013-2-20,49.7,39.9,35.4,38.0,34.2,29.0,91,81,45,30.13,29.74,19,11,0,0.25
2013-2-21,59.0,44.9,35.7,46.0,37.2,31.0,93,76,49,29.85,29.54,26,10,0,0.20
2013-2-22,45.0,34.9,26.6,33.0,24.6,19.0,83,67,50,30.07,29.84,15,6,0,0.00
2013-2-23,49.4,36.6,26.0,32.0,26.3,20.0,82,67,49,30.03,29.86,12,3,0,0.00
2013-2-24,65.8,50.0,31.9,44.0,36.0,27.0,81,61,41,29.86,29.52,25,9,0,0.00
2013-2-25,54.0,46.8,35.7,48.0,38.2,32.0,90,73,54,29.56,29.34,21,11,0,0.01
2013-2-26,53.5,43.3,37.3,36.0,32.3,29.0,84,67,46,29.82,29.52,25,12,0,0.00
2013-2-27,53.0,41.8,31.6,33.0,27.8,21.0,86,60,32,30.14,29.80,19,10,0,0.00
2013-2-28,55.8,40.8,27.9,31.0,26.6,24.0,87,60,33,30.20,30.08,20,9,0,0.00
2013-3-1,49.4,38.3,28.6,34.0,28.2,24.0,86,68,53,30.23,30.12,16,6,0,0.00
2013-3-2,51.0,37.2,25.0,28.0,23.2,18.0,81,59,37,30.35,30.16,19,6,0,0.00
2013-3-3,67.5,50.4,30.5,40.0,31.1,23.0,77,50,31,30.15,29.67,23,10,0,0.00
2013-3-4,84.6,65.7,52.6,48.0,42.6,40.0,66,47,21,29.70,29.46,25,12,0,0.00
2013-3-5,53.1,45.7,33.7,40.0,26.2,21.0,71,48,30,30.28,29.70,33,15,0,0.00
2013-3-6,56.7,43.6,30.9,27.0,22.6,20.0,66,45,26,30.38,30.12,10,3,0,0.00
2013-3-7,67.7,52.4,36.6,35.0,28.5,22.0,58,41,25,30.15,30.00,18,7,0,0.00
2013-3-8,60.9,56.0,51.1,55.0,47.8,33.0,92,75,45,30.09,29.87,18,10,0,0.01
2013-3-9,64.2,59.7,54.3,62.0,56.7,53.0,94,89,80,29.87,29.55,20,11,0,1.29
2013-3-10,54.6,46.7,35.2,53.0,39.0,30.0,95,75,63,29.99,29.61,21,9,0,0.36
2013-3-11,56.3,41.2,30.1,33.0,28.0,25.0,92,63,32,30.04,29.92,16,5,0,0.00
2013-3-12,62.5,48.2,35.6,40.0,30.9,26.0,72,54,30,30.23,29.95,15,2,0,0.00
2013-3-13,63.8,51.4,39.2,38.0,34.4,31.0,73,54,36,30.37,30.23,11,3,0,0.00
2013-3-14,73.9,57.5,42.4,48.0,40.4,32.0,72,54,38,30.25,30.05,18,6,0,0.00
2013-3-15,78.7,62.8,48.3,55.0,47.6,43.0,90,61,31,30.06,29.75,19,9,0,0.00
2013-3-16,77.7,67.6,56.1,60.0,53.5,46.0,82,62,49,29.75,29.56,21,12,0,0.00
2013-3-17,66.8,61.2,49.5,61.0,52.7,44.0,85,74,58,29.65,29.57,18,7,0,0.00
2013-3-18,64.8,54.4,47.0,47.0,43.2,36.0,90,68,43,29.93,29.53,18,8,0,0.00
2013-3-19,62.8,53.5,43.2,38.0,34.9,32.0,71,51,36,30.04,29.88,17,6,0,0.00
2013-3-20,62.0,52.8,40.9,38.0,33.1,28.0,74,50,28,30.22,29.94,13,4,0,0.00
2013-3-21,65.6,53.9,46.5,51.0,37.7,30.0,63,55,45,29.94,29.48,20,11,0,0.00
2013-3-22,53.2,45.1,40.7,42.0,41.0,38.0,93,86,63,29.78,29.50,20,9,0,0.00
2013-3-23,48.1,45.6,43.4,46.0,43.9,42.0,96,93,90,29.76,29.58,20,5,0,0.45
2013-3-24,48.6,41.3,33.3,43.0,29.5,22.0,93,65,42,30.11,29.75,30,15,0,0.03
2013-3-25,48.6,37.8,26.4,25.0,21.3,18.0,78,54,31,30.32,30.10,25,10,0,0.00
2013-3-26,53.4,40.3,27.6,30.0,23.2,18.0,74,52,35,30.43,30.23,10,2,0,0.00
2013-3-27,67.2,49.9,34.2,42.0,31.9,23.0,66,52,37,30.24,30.00,23,9,0,0.00
2013-3-28,68.8,59.2,48.1,56.0,49.9,39.0,86,72,59,30.12,29.98,18,9,0,0.00
2013-3-29,74.9,65.6,59.6,59.0,56.4,55.0,86,73,56,30.07,29.92,17,10,0,0.00
2013-3-30,74.6,64.2,54.0,64.0,59.1,52.0,94,84,68,29.97,29.77,16,6,0,0.85
2013-3-31,69.4,62.8,54.5,60.0,55.4,49.0,94,78,54,29.88,29.68,25,5,0,0.06
2013-4-1,73.8,61.9,47.1,53.0,49.5,45.0,92,67,43,29.98,29.85,10,2,0,0.01
2013-4-2,63.6,56.2,46.9,58.0,50.5,44.0,91,82,61,29.94,29.84,19,9,0,0.01
2013-4-3,48.8,45.2,41.9,46.0,42.1,38.0,94,89,80,30.06,29.90,14,8,0,0.01
2013-4-4,50.0,43.4,39.7,43.0,39.6,38.0,93,86,75,30.12,30.04,17,7,0,0.01
2013-4-5,66.1,52.7,37.0,51.0,43.8,35.0,93,73,52,30.17,29.93,12,4,0,0.01
2013-4-6,71.9,63.4,52.8,58.0,52.1,45.0,82,68,50,29.93,29.73,22,10,0,0.01
2013-4-7,69.6,64.2,58.2,61.0,58.8,55.0,89,83,75,29.79,29.61,18,11,0,0.30
2013-4-8,74.3,69.0,63.9,66.0,61.8,58.0,85,78,71,29.63,29.55,25,15,0,0.00
2013-4-9,76.6,71.6,65.9,66.0,64.1,60.0,88,78,67,29.60,29.50,22,11,0,0.00
2013-4-10,71.9,44.1,36.4,66.0,40.5,32.0,97,87,75,29.90,29.58,21,12,0,0.17
2013-4-11,56.9,44.3,35.9,41.0,34.9,29.0,87,70,54,29.89,29.74,20,6,0,0.00
2013-4-12,71.1,55.1,38.2,51.0,43.4,36.0,93,68,44,29.92,29.77,7,2,0,0.00
2013-4-13,61.1,53.3,48.3,50.0,44.8,43.0,82,73,65,29.91,29.83,8,3,0,0.00
2013-4-15,78.3,75.5,73.9,67.0,65.5,65.0,75,71,68,29.62,29.55,12,9,0,0.00
2013-4-16,82.0,75.2,69.2,69.0,66.2,63.0,85,74,61,29.79,29.62,19,10,0,0.00
2013-4-17,81.0,75.3,71.3,70.0,68.1,67.0,93,79,66,29.76,29.48,25,14,0,0.00
2013-4-18,74.4,51.3,38.9,70.0,44.5,33.0,93,78,60,30.06,29.40,27,14,0,1.08
2013-4-19,60.0,45.9,33.2,38.0,33.3,29.0,86,64,36,30.19,30.05,17,5,0,0.00
2013-4-20,67.0,54.5,39.3,43.0,37.6,32.0,82,55,36,30.11,29.93,18,6,0,0.00
2013-4-21,67.1,56.3,44.2,53.0,45.2,37.0,83,67,54,30.13,29.98,16,5,0,0.00
2013-4-22,73.1,62.3,49.4,61.0,52.7,43.0,82,71,58,30.03,29.73,20,8,0,0.00
2013-4-23,65.4,51.8,38.6,60.0,48.3,35.0,93,88,74,30.10,29.67,22,10,0,0.02
2013-4-24,58.4,45.9,35.0,38.0,34.5,30.0,90,67,41,30.25,30.09,15,7,0,0.15
2013-4-25,69.5,55.7,36.4,49.0,39.8,30.0,81,57,39,30.26,30.04,13,4,0,0.00
2013-4-26,72.5,63.9,56.0,66.0,55.9,44.0,88,76,61,30.09,29.87,15,7,0,0.00
2013-4-27,71.6,64.8,55.5,65.0,58.3,51.0,90,80,60,30.00,29.84,15,6,0,0.00
2013-4-28,78.1,63.6,48.2,65.0,56.6,47.0,95,80,55,29.93,29.75,8,2,0,0.00
2013-4-29,82.8,70.1,57.2,67.0,60.5,56.0,95,74,45,29.79,29.67,15,4,0,0.01
2013-4-30,78.6,68.6,57.0,66.0,60.7,54.0,93,77,59,29.72,29.64,18,5,0,0.00
2013-5-1,81.2,70.2,61.3,68.0,62.7,59.0,95,79,56,29.86,29.68,13,6,0,0.00
2013-5-2,64.3,48.6,40.1,59.0,43.2,35.0,90,81,75,30.24,29.87,27,14,0,0.00
2013-5-3,63.6,48.7,33.8,38.0,33.3,30.0,89,60,30,30.23,29.94,24,10,0,0.00
2013-5-4,67.7,52.9,37.9,46.0,36.5,31.0,88,58,25,29.95,29.81,23,7,0,0.00
2013-5-5,63.9,52.4,41.0,49.0,42.5,36.0,85,70,55,30.07,29.95,17,6,0,0.00
2013-5-6,75.2,60.0,44.7,56.0,50.2,42.0,93,72,45,30.03,29.89,11,2,0,0.00
2013-5-7,79.9,66.6,49.6,58.0,53.2,47.0,90,65,41,29.98,29.82,10,2,0,0.00
2013-5-8,82.2,70.3,59.0,61.0,56.3,51.0,80,63,43,29.88,29.75,18,7,0,0.00
2013-5-9,71.7,67.6,63.0,66.0,62.4,58.0,94,84,67,29.84,29.72,12,5,0,0.01
2013-5-10,79.4,68.8,61.4,66.0,60.7,57.0,96,78,51,29.94,29.79,16,3,0,0.00
2013-5-11,78.5,67.2,53.7,57.0,52.8,49.0,89,63,37,30.08,29.93,19,5,0,0.00
2013-5-12,76.6,64.0,51.7,53.0,42.1,35.0,73,48,23,30.16,30.03,12,3,0,0.00
2013-5-13,84.9,68.7,50.8,55.0,48.3,42.0,74,51,33,30.12,29.98,15,5,0,0.00
2013-5-14,85.3,73.7,62.0,61.0,55.9,50.0,75,55,37,30.02,29.86,17,7,0,0.00
2013-5-15,78.3,69.4,61.9,67.0,64.4,57.0,94,84,66,29.90,29.64,23,10,0,0.76
2013-5-16,74.4,65.7,61.1,70.0,63.7,60.0,96,93,85,29.73,29.62,17,5,0,0.38
2013-5-17,85.8,75.2,66.1,76.0,71.1,65.0,98,87,68,29.75,29.67,11,4,0,0.00
2013-5-18,88.7,79.2,69.8,75.0,71.4,67.0,93,78,62,29.76,29.62,19,8,0,0.00
2013-5-19,85.8,79.4,69.6,71.0,68.7,64.0,86,70,61,29.68,29.52,23,12,0,0.00
2013-5-20,87.6,78.0,68.4,74.0,69.1,64.0,90,75,60,29.67,29.47,22,11,0,0.01
2013-5-21,77.8,67.0,58.3,71.0,64.1,57.0,95,91,79,29.76,29.59,16,4,0,1.11
2013-5-22,81.9,66.1,50.4,66.0,57.9,49.0,97,78,46,29.86,29.73,7,1,0,0.01
2013-5-23,83.5,73.5,63.2,72.0,67.5,59.0,95,82,59,29.98,29.78,14,5,0,0.00
2013-5-24,81.6,74.1,65.0,75.0,70.0,63.0,95,87,76,30.10,29.90,12,4,0,2.14
2013-5-25,80.5,70.0,64.3,72.0,66.5,62.0,96,89,71,30.09,29.91,17,6,0,0.44
2013-5-26,83.2,74.7,67.5,74.0,70.3,66.0,96,86,68,29.97,29.80,14,6,0,0.02
2013-5-27,82.7,75.6,69.4,71.0,68.8,66.0,93,80,63,29.86,29.67,19,9,0,0.00
2013-5-28,81.8,76.2,69.9,70.0,67.7,66.0,87,75,64,29.76,29.61,19,11,0,0.00
2013-5-29,81.3,74.8,69.3,73.0,69.4,66.0,92,83,72,29.71,29.57,19,11,0,0.49
2013-5-30,85.6,78.3,72.7,75.0,71.2,69.0,88,79,68,29.66,29.55,21,12,0,0.00
2013-5-31,87.1,80.7,75.2,75.0,72.6,71.0,87,77,64,29.70,29.53,19,11,0,0.00
2013-6-1,79.8,75.7,68.9,72.0,69.5,62.0,88,81,75,29.85,29.56,17,8,0,0.01
2013-6-2,80.0,69.6,58.9,62.0,57.0,51.0,92,67,39,29.98,29.84,17,5,0,0.00
2013-6-3,84.6,71.5,56.8,65.0,60.6,54.0,91,70,48,29.90,29.74,10,3,0,0.00
2013-6-4,87.0,75.8,66.5,72.0,67.3,62.0,94,76,59,29.93,29.69,16,7,0,0.44
2013-6-5,87.2,77.8,70.1,73.0,69.9,68.0,92,78,58,29.84,29.66,13,4,0,0.10
2013-6-6,75.1,70.0,63.9,71.0,66.1,61.0,95,87,75,29.84,29.69,19,4,0,0.96
2013-6-7,76.0,34.8,59.2,63.0,-13.3,-99.9,95,47,54,29.91,29.80,10,-457,0,0.01
2013-6-8,-200.0,0.0,200.0,-99.9,-99.9,-99.9,0,0,100,29.84,29.71,0,-999,0,0.00
2013-6-9,87.1,40.9,69.7,71.0,-14.6,-99.9,93,35,54,29.84,29.67,9,-493,0,0.00
2013-6-10,93.2,79.7,66.7,73.0,68.3,65.0,95,71,42,29.84,29.77,13,3,0,0.01
2013-6-11,91.6,81.1,68.8,75.0,70.5,66.0,93,72,52,29.89,29.79,14,5,0,0.00
2013-6-12,92.1,81.5,73.2,75.0,71.6,69.0,90,73,54,29.91,29.79,14,5,0,0.00
2013-6-13,95.2,82.9,71.2,74.0,70.7,67.0,91,69,44,29.92,29.77,11,2,0,0.00
2013-6-14,95.5,83.5,70.7,73.0,70.8,68.0,92,67,44,29.87,29.77,12,2,0,0.00
2013-6-15,88.4,80.7,73.3,75.0,72.1,67.0,92,75,62,29.88,29.76,14,4,0,0.00
2013-6-16,93.3,81.5,71.6,76.0,71.7,69.0,95,74,53,29.89,29.74,13,3,0,0.00
2013-6-17,86.2,77.0,66.4,75.0,70.5,65.0,95,81,67,29.91,29.74,19,3,0,0.64
2013-6-18,83.2,74.7,69.6,72.0,68.8,67.0,92,82,66,29.90,29.80,12,2,0,0.02
2013-6-19,88.8,77.6,66.9,75.0,70.0,66.0,97,79,57,29.89,29.76,10,4,0,0.01
2013-6-20,92.7,82.3,73.1,74.0,71.2,69.0,94,71,49,29.91,29.80,18,7,0,0.00
2013-6-21,92.2,82.4,72.2,73.0,70.4,68.0,90,69,49,29.94,29.83,16,6,0,0.00
2013-6-22,91.9,82.5,71.3,72.0,70.1,69.0,91,68,49,29.91,29.75,17,7,0,0.00
2013-6-23,92.1,83.0,73.3,73.0,70.1,67.0,88,66,47,29.86,29.75,17,8,0,0.00
2013-6-24,92.7,82.7,73.3,72.0,69.7,67.0,87,66,47,29.90,29.76,17,8,0,0.00
2013-6-25,93.6,84.5,75.6,73.0,69.9,67.0,80,63,45,29.86,29.69,17,9,0,0.00
2013-6-26,94.9,84.7,76.4,75.0,70.7,66.0,77,64,49,29.83,29.70,18,7,0,0.00
2013-6-27,98.0,84.7,73.3,76.0,71.8,68.0,84,67,44,29.87,29.73,12,3,0,0.00
2013-6-28,97.6,85.0,73.6,75.0,70.0,67.0,84,63,42,29.82,29.71,12,2,0,0.00
2013-6-29,93.4,82.1,70.4,69.0,65.4,61.0,88,60,37,29.79,29.68,13,3,0,0.00
2013-6-30,86.5,77.3,67.9,66.0,60.2,57.0,83,58,41,29.84,29.71,16,4,0,0.00
2013-7-1,84.3,73.6,62.3,63.0,59.5,55.0,86,63,44,29.92,29.83,20,4,0,0.00
2013-7-2,84.8,70.4,59.8,61.0,56.2,54.0,85,63,35,29.98,29.91,9,2,0,0.00
2013-7-3,89.0,74.2,58.3,59.0,55.5,51.0,89,56,30,29.96,29.83,6,1,0,0.00
2013-7-4,91.7,77.6,65.0,64.0,59.8,55.0,78,57,33,29.89,29.79,13,4,0,0.00
2013-7-5,92.6,81.6,69.9,66.0,63.1,60.0,80,55,34,29.88,29.74,12,3,0,0.00
2013-7-6,93.4,79.3,68.6,70.0,63.8,60.0,74,60,39,29.83,29.74,12,4,0,0.00
2013-7-7,94.6,83.1,70.7,72.0,66.5,63.0,82,59,39,29.88,29.80,16,4,0,0.00
2013-7-8,93.4,82.6,73.5,74.0,71.1,68.0,89,70,49,29.96,29.85,13,6,0,0.00
2013-7-9,96.8,86.2,77.6,72.0,67.3,63.0,78,55,34,29.98,29.84,17,6,0,0.00
2013-7-10,99.1,88.2,77.5,74.0,70.1,65.0,72,56,37,29.91,29.77,13,4,0,0.00
2013-7-11,102.0,84.1,76.0,75.0,70.2,68.0,84,64,34,29.83,29.75,29,3,0,0.49
2013-7-12,96.7,83.1,71.3,74.0,71.1,69.0,94,70,42,29.86,29.76,13,3,0,0.00
2013-7-13,97.2,84.7,73.9,71.0,67.5,61.0,84,58,40,29.88,29.75,14,5,0,0.00
2013-7-14,78.2,71.5,67.7,69.0,65.2,60.0,93,81,56,29.92,29.78,13,2,0,0.14
2013-7-15,73.8,68.8,63.8,70.0,66.0,62.0,96,90,82,30.00,29.86,9,2,0,0.55
2013-7-16,89.0,76.2,69.5,73.0,70.7,68.0,96,84,58,30.07,29.98,12,3,0,0.01
2013-7-17,89.8,77.8,70.0,75.0,71.4,68.0,94,82,57,30.12,30.03,17,3,0,0.20
2013-7-18,94.0,80.1,69.1,74.0,70.7,67.0,95,75,47,30.07,29.89,13,1,0,0.00
2013-7-19,93.2,78.5,71.3,73.0,71.0,67.0,93,79,48,29.93,29.81,14,3,0,0.00
2013-7-20,92.6,79.7,69.9,73.0,71.0,69.0,96,77,50,29.86,29.73,14,3,0,0.00
2013-7-21,95.2,82.7,70.9,75.0,71.8,70.0,95,72,46,29.80,29.71,14,4,0,0.00
2013-7-22,96.2,85.4,76.1,76.0,72.6,69.0,90,68,46,29.83,29.72,16,6,0,0.00
2013-7-23,96.5,86.6,78.9,77.0,73.2,68.0,81,65,49,29.83,29.67,16,6,0,0.00
2013-7-24,92.3,79.2,70.7,73.0,69.4,66.0,93,73,49,29.96,29.72,15,3,0,0.12
2013-7-25,93.0,81.1,67.2,73.0,70.2,66.0,95,71,51,29.95,29.86,10,2,0,0.00
2013-7-26,90.6,79.0,71.0,77.0,72.5,69.0,96,81,62,29.93,29.74,18,5,0,1.13
2013-7-27,86.9,76.6,70.3,70.0,68.0,66.0,90,76,53,29.91,29.80,12,3,0,0.00
2013-7-28,90.8,78.3,67.8,70.0,68.2,65.0,94,73,50,29.88,29.76,14,4,0,0.00
2013-7-29,91.4,82.2,74.4,76.0,72.1,67.0,91,73,53,29.88,29.78,16,6,0,0.00
2013-7-30,95.3,85.3,74.6,74.0,70.4,64.0,84,62,47,29.94,29.82,17,6,0,0.00
2013-7-31,98.1,86.6,75.5,77.0,72.0,66.0,76,63,47,29.92,29.79,11,2,0,0.00
2013-8-1,96.8,87.6,77.4,78.0,75.5,70.0,89,69,50,29.89,29.77,7,2,0,0.00
2013-8-2,100.6,88.8,76.6,73.0,70.3,67.0,82,57,36,29.82,29.72,15,6,0,0.00
2013-8-3,98.4,88.2,77.6,72.0,69.2,66.0,74,55,35,29.89,29.78,14,4,0,0.00
2013-8-4,98.0,86.0,74.5,73.0,70.0,67.0,84,61,38,29.93,29.80,12,3,0,0.00
2013-8-5,100.7,87.7,77.5,72.0,69.5,65.0,79,57,36,29.86,29.70,12,3,0,0.00
2013-8-6,102.1,88.2,77.1,73.0,68.2,64.0,74,53,33,29.76,29.65,15,4,0,0.00
2013-8-7,103.2,90.2,78.2,73.0,69.0,65.0,71,51,32,29.75,29.61,15,6,0,0.00
2013-8-8,99.9,88.5,78.7,76.0,70.4,66.0,75,56,36,29.76,29.63,14,3,0,0.02
2013-8-9,100.0,86.4,76.3,73.0,68.6,64.0,80,57,32,29.84,29.69,13,3,0,0.00
2013-8-10,93.9,83.5,75.0,74.0,71.3,68.0,91,69,44,29.94,29.85,12,5,0,0.00
2013-8-11,99.4,85.0,72.5,74.0,70.1,68.0,89,64,37,29.95,29.83,13,1,0,0.00
2013-8-12,98.7,86.0,74.0,72.0,70.0,68.0,85,61,39,29.91,29.78,12,3,0,0.00
2013-8-13,94.4,84.5,75.5,74.0,70.8,69.0,81,65,46,29.88,29.77,13,4,0,0.00
2013-8-14,91.2,80.8,73.4,73.0,69.8,66.0,90,71,47,29.91,29.82,11,3,0,0.00
2013-8-15,88.1,76.4,67.1,66.0,62.4,58.0,80,63,44,29.97,29.84,10,2,0,0.00
2013-8-16,86.2,74.1,64.3,68.0,64.0,61.0,94,72,49,29.98,29.86,19,2,0,0.26
2013-8-17,87.9,74.7,61.1,63.0,60.5,57.0,88,63,42,30.01,29.87,10,2,0,0.00
2013-8-18,90.6,76.7,62.7,66.0,61.4,58.0,88,62,38,30.00,29.88,7,1,0,0.00
2013-8-19,94.7,79.4,67.0,69.0,62.3,58.0,86,59,35,29.96,29.82,14,3,0,0.00
2013-8-20,94.3,81.6,69.5,67.0,61.6,59.0,75,53,32,29.93,29.83,10,2,0,0.00
2013-8-21,94.9,82.4,67.7,69.0,63.7,60.0,83,56,35,29.96,29.86,15,3,0,0.00
2013-8-22,97.6,85.7,69.7,71.0,66.9,64.0,83,55,37,29.96,29.80,10,2,0,0.00
2013-8-23,97.8,84.5,76.5,73.0,69.4,67.0,79,61,39,29.91,29.79,9,2,0,0.00
2013-8-24,99.2,86.3,75.1,73.0,68.6,66.0,78,58,35,29.95,29.84,10,3,0,0.00
2013-8-25,96.5,85.3,72.8,71.0,67.7,65.0,82,57,38,30.03,29.93,13,3,0,0.00
2013-8-26,95.6,83.5,70.4,70.0,65.7,60.0,84,57,35,30.05,29.93,15,4,0,0.00
2013-8-27,92.1,80.5,71.5,71.0,68.6,65.0,90,69,43,30.00,29.88,13,4,0,0.00
2013-8-28,96.7,82.4,67.6,72.0,66.6,62.0,91,62,37,29.98,29.86,13,2,0,0.00
2013-8-29,100.4,85.7,70.1,69.0,65.6,63.0,83,54,32,29.95,29.82,10,1,0,0.00
2013-8-30,102.4,88.2,74.1,69.0,65.3,63.0,72,49,31,29.88,29.73,10,2,0,0.00
2013-8-31,103.6,88.8,72.9,69.0,65.7,64.0,75,49,29,29.77,29.65,9,2,0,0.00
2013-9-1,103.7,87.0,74.6,71.0,67.5,64.0,73,54,31,29.74,29.62,19,2,0,0.40
2013-9-2,96.4,83.6,74.8,73.0,70.8,66.0,90,67,42,29.88,29.72,12,2,0,0.02
2013-9-3,97.4,84.2,72.7,69.0,62.6,54.0,72,51,25,29.87,29.77,11,2,0,0.00
2013-9-4,98.0,84.9,71.9,73.0,67.1,63.0,83,58,35,29.93,29.83,13,2,0,0.00
2013-9-5,99.5,85.2,72.0,71.0,63.6,60.0,66,50,33,29.99,29.87,12,2,0,0.00
2013-9-6,100.8,84.6,71.0,70.0,63.8,59.0,68,51,33,29.97,29.82,6,1,0,0.00
2013-9-7,98.1,85.6,73.6,71.0,65.6,62.0,75,53,33,29.91,29.78,10,2,0,0.00
2013-9-8,96.1,83.0,67.2,70.0,65.0,60.0,89,58,36,29.86,29.74,12,2,0,0.00
2013-9-9,94.1,82.7,68.1,70.0,64.9,61.0,87,57,38,29.88,29.78,16,4,0,0.00
2013-9-10,93.6,81.8,70.7,72.0,64.2,52.0,87,58,32,29.98,29.84,14,4,0,0.00
2013-9-11,95.6,79.5,67.4,72.0,65.4,57.0,80,64,40,30.01,29.88,16,2,0,0.01
2013-9-12,97.4,82.7,70.0,70.0,67.4,65.0,88,63,37,29.95,29.80,7,1,0,0.00
2013-9-13,95.6,82.7,73.6,72.0,68.3,66.0,82,64,40,29.86,29.72,13,3,0,0.00
2013-9-14,92.2,80.2,70.1,68.0,61.7,56.0,76,55,38,29.88,29.77,17,5,0,0.00
2013-9-15,94.9,81.5,69.0,70.0,62.6,54.0,60,53,44,29.92,29.83,12,4,0,0.00
2013-9-16,96.8,83.6,70.3,70.0,64.7,61.0,73,54,38,29.97,29.84,7,1,0,0.00
2013-9-17,92.4,83.2,73.6,69.0,65.4,63.0,74,56,40,29.95,29.83,12,2,0,0.00
2013-9-18,94.4,84.0,74.9,70.0,66.4,62.0,76,57,37,29.89,29.75,14,4,0,0.00
2013-9-19,88.6,80.1,69.0,71.0,67.6,62.0,93,67,53,29.87,29.75,14,3,0,0.48
2013-9-20,72.9,70.3,66.4,70.0,67.8,58.0,95,91,74,29.83,29.75,13,5,0,0.63
2013-9-21,82.1,69.2,59.4,58.0,53.0,48.0,82,59,31,29.90,29.77,13,4,0,0.03
2013-9-22,82.1,68.2,55.6,56.0,51.7,49.0,79,58,38,29.84,29.70,10,2,0,0.00
2013-9-23,83.2,69.4,56.1,57.0,53.8,51.0,84,60,34,29.77,29.65,12,4,0,0.00
2013-9-24,91.5,74.9,59.8,65.0,55.0,46.0,89,55,24,29.83,29.72,18,3,0,0.00
2013-9-25,92.4,73.5,53.8,59.0,52.3,47.0,83,51,27,29.80,29.66,7,1,0,0.00
2013-9-26,92.9,78.2,66.2,63.0,57.4,52.0,64,50,33,29.77,29.68,14,6,0,0.00
2013-9-27,88.5,77.2,64.4,71.0,65.7,59.0,83,68,55,29.82,29.72,18,7,0,0.00
2013-9-28,81.4,72.7,63.7,75.0,68.0,60.0,94,85,69,29.94,29.74,17,9,0,0.62
2013-9-29,79.6,67.6,58.1,60.0,55.4,48.0,94,69,34,29.95,29.81,10,3,0,0.00
2013-9-30,84.0,68.9,52.2,61.0,54.6,50.0,93,65,35,29.82,29.71,11,1,0,0.00
2013-10-1,87.5,75.4,64.7,71.0,66.4,61.0,96,76,46,29.84,29.73,13,5,0,0.00
2013-10-2,87.0,77.3,70.7,72.0,69.8,67.0,94,79,57,29.87,29.74,16,8,0,0.00
2013-10-3,88.1,79.1,71.6,72.0,70.0,68.0,90,75,53,29.81,29.68,15,8,0,0.00
2013-10-4,87.4,78.7,71.4,71.0,69.1,67.0,93,74,53,29.80,29.70,18,9,0,0.00
2013-10-5,76.9,60.6,49.7,69.0,55.2,44.0,94,83,67,29.99,29.74,18,7,0,0.27
2013-10-6,71.9,57.7,46.1,48.0,41.7,34.0,94,62,28,30.04,29.93,14,4,0,0.01
2013-10-7,78.7,61.8,44.5,47.0,40.4,37.0,83,51,23,30.07,29.97,8,1,0,0.00
2013-10-8,78.1,64.0,49.6,52.0,47.5,41.0,79,57,35,30.02,29.89,12,3,0,0.00
2013-10-9,80.2,65.8,51.9,58.0,53.2,49.0,89,66,41,29.98,29.88,13,5,0,0.00
2013-10-10,81.7,68.5,55.7,63.0,57.3,53.0,92,69,44,29.95,29.77,15,6,0,0.00
2013-10-11,82.0,73.4,65.2,70.0,66.3,59.0,91,79,65,29.82,29.71,16,8,0,0.01
2013-10-12,89.4,77.1,66.1,74.0,69.6,61.0,92,79,41,29.96,29.76,13,4,0,0.00
2013-10-13,74.2,69.7,65.2,69.0,66.2,63.0,95,88,79,30.10,29.96,11,3,0,0.00
2013-10-14,70.4,68.3,65.9,69.0,66.6,64.0,96,94,85,30.04,29.82,13,8,0,0.51
2013-10-15,73.2,63.1,52.2,71.0,61.3,50.0,96,94,90,29.98,29.79,18,8,0,0.04
2013-10-16,62.4,55.7,51.4,52.0,48.3,46.0,94,77,57,30.02,29.92,15,6,0,0.46
2013-10-17,68.7,55.0,42.0,50.0,45.5,40.0,93,73,48,30.05,29.89,7,1,0,0.00
2013-10-18,68.1,57.4,47.8,56.0,50.5,44.0,92,79,55,30.02,29.81,18,5,0,0.00
2013-10-19,64.7,49.7,37.1,44.0,38.9,35.0,92,70,37,30.13,29.98,14,5,0,0.00
2013-10-20,68.7,53.5,38.0,46.0,42.2,35.0,91,69,41,29.99,29.78,18,5,0,0.00
2013-10-21,67.1,56.2,49.6,58.0,49.9,42.0,89,79,70,30.02,29.82,15,5,0,0.00
2013-10-22,74.0,56.5,40.0,48.0,43.2,37.0,91,64,38,30.07,29.92,12,2,0,0.00
2013-10-23,79.8,61.8,45.6,53.0,48.0,43.0,90,64,33,30.03,29.93,10,1,0,0.00
2013-10-24,72.0,61.3,47.0,52.0,46.6,39.0,90,60,44,30.20,29.94,18,4,0,0.00
2013-10-25,64.9,53.7,44.8,45.0,40.7,36.0,81,63,46,30.33,30.16,16,5,0,0.00
2013-10-26,71.8,58.2,50.1,63.0,52.7,43.0,95,82,72,30.16,29.93,22,5,0,1.40
2013-10-27,61.4,58.1,55.5,57.0,56.0,54.0,96,92,86,30.03,29.92,5,0,0,0.00
2013-10-28,73.1,62.9,51.8,67.0,60.2,51.0,97,91,79,30.02,29.91,13,5,0,0.02
2013-10-29,73.9,70.1,67.3,69.0,66.8,64.0,92,89,84,29.97,29.88,18,10,0,0.00
2013-10-30,70.8,47.4,63.6,68.0,16.5,-99.9,96,65,89,29.90,29.67,21,-287,0,0.34
2013-10-31,69.5,64.8,52.7,68.0,55.3,44.0,98,74,43,29.77,29.55,22,8,0,0.01
2013-11-1,73.6,58.3,42.6,51.0,46.2,41.0,95,68,40,30.00,29.73,15,3,0,0.00
2013-11-2,64.9,53.3,41.5,44.0,39.4,36.0,89,62,34,30.20,30.00,15,4,0,0.00
2013-11-3,63.3,52.0,39.1,46.0,40.0,34.0,90,66,44,30.13,29.92,19,7,0,0.00
2013-11-4,58.3,56.2,53.6,57.0,51.8,45.0,96,85,70,30.00,29.90,15,8,0,0.69
2013-11-5,68.0,62.8,58.1,67.0,61.4,57.0,96,95,89,29.97,29.83,17,10,0,0.78
2013-11-6,68.8,52.5,40.9,67.0,46.6,36.0,95,81,58,30.28,29.85,21,9,0,0.57
2013-11-7,61.8,47.3,35.5,46.0,38.9,34.0,93,75,43,30.43,30.28,6,1,0,0.00
2013-11-8,64.4,51.9,38.0,47.0,41.4,36.0,94,70,39,30.30,30.04,17,4,0,0.01
2013-11-9,66.1,57.3,50.8,53.0,48.5,45.0,85,73,62,30.14,30.02,16,7,0,0.01
2013-11-10,66.0,55.6,46.4,50.0,47.2,45.0,96,74,54,30.26,30.14,10,2,0,0.00
2013-11-11,70.1,56.1,44.0,55.0,49.6,42.0,95,80,58,30.20,30.08,10,2,0,0.01
2013-11-12,60.4,44.3,32.1,56.0,31.3,19.0,92,62,38,30.61,30.20,23,10,0,0.00
2013-11-13,49.2,36.3,25.2,27.0,23.2,19.0,78,61,41,30.61,30.30,10,2,0,0.00
2013-11-14,55.0,43.4,28.4,44.0,31.0,23.0,83,64,41,30.30,29.93,15,6,0,0.00
2013-11-15,68.1,56.9,48.3,57.0,50.7,44.0,90,80,58,29.93,29.74,12,7,0,0.00
2013-11-16,72.6,66.7,58.7,69.0,62.1,56.0,93,85,75,29.76,29.55,18,11,0,0.00
2013-11-17,81.2,72.0,60.3,69.0,55.0,33.0,91,59,30,29.92,29.57,16,8,0,0.02
2013-11-18,69.0,58.9,50.1,37.0,32.5,27.0,48,37,28,30.10,29.92,13,5,0,0.00
2013-11-19,63.4,56.8,51.8,39.0,34.5,30.0,54,44,30,30.11,29.93,16,9,0,0.00
2013-11-20,62.1,55.4,45.5,51.0,41.0,32.0,70,59,47,29.93,29.79,18,11,0,0.00
2013-11-21,71.5,60.4,38.4,67.0,57.0,36.0,94,88,71,30.13,29.86,20,9,0,0.58
2013-11-22,37.8,34.2,32.8,36.0,32.0,30.0,94,92,88,30.39,30.13,24,14,0,0.72
2013-11-23,41.2,36.0,33.0,34.0,30.4,23.0,94,81,59,30.49,30.37,19,9,0,0.00
2013-11-24,33.4,30.3,28.7,27.0,23.4,19.0,87,76,65,30.53,30.29,12,5,0,0.01
2013-11-25,34.4,32.4,30.0,32.0,30.3,27.0,93,91,87,30.30,30.10,15,3,0,0.01
2013-11-26,49.2,39.2,33.4,36.0,31.0,24.0,92,74,50,30.30,30.07,23,10,0,0.00
2013-11-27,42.7,32.3,23.5,24.0,19.2,16.0,80,60,36,30.39,30.27,14,5,0,0.00
2013-11-28,50.9,35.4,22.0,30.0,23.9,18.0,85,65,36,30.38,30.27,12,3,0,0.00
2013-11-29,55.2,40.5,27.4,39.0,31.0,23.0,86,70,44,30.43,30.27,13,4,0,0.00
2013-11-30,63.8,49.7,35.6,52.0,43.2,32.0,91,79,63,30.27,30.05,15,6,0,0.00
2013-12-1,63.2,54.9,47.4,57.0,51.8,46.0,96,89,79,30.06,29.80,15,4,0,0.01
2013-12-2,66.5,50.1,35.0,55.0,45.6,34.0,96,86,60,29.80,29.58,5,1,0,0.02
2013-12-3,69.2,51.3,36.8,54.0,42.5,36.0,96,76,40,29.59,29.43,10,3,0,0.02
2013-12-4,70.6,53.8,40.3,51.0,43.2,32.0,91,69,40,29.80,29.47,20,5,0,0.00
2013-12-5,39.7,30.6,25.8,32.0,24.0,20.0,92,77,62,30.12,29.82,21,12,0,0.01
2013-12-6,27.9,23.6,19.8,26.0,20.4,14.0,93,87,78,30.46,30.07,15,9,0,0.00
2013-12-7,23.9,20.3,15.1,20.0,15.0,9.0,84,79,75,30.50,30.21,12,6,0,0.00
2013-12-8,30.1,27.4,23.8,28.0,24.8,20.0,92,90,84,30.21,29.98,6,1,0,0.06
2013-12-9,30.7,29.2,25.5,27.0,24.1,18.0,92,81,71,30.35,30.10,18,5,0,0.07
2013-12-10,32.4,23.4,14.5,20.0,16.3,10.0,89,75,57,30.46,30.28,11,3,0,0.35
2013-12-11,39.7,29.2,20.5,29.0,23.8,18.0,91,81,65,30.54,30.26,7,2,0,0.40
2013-12-12,42.1,31.9,22.7,31.0,25.4,19.0,87,78,63,30.55,30.23,9,2,0,0.34
2013-12-13,41.6,38.3,35.2,40.0,34.9,30.0,96,88,78,30.22,29.72,18,7,0,0.20
2013-12-14,42.4,24.8,29.7,41.0,-8.5,-99.9,96,58,72,30.25,29.72,20,6,0,0.00
2013-12-15,56.6,39.3,24.2,38.0,29.9,22.0,92,72,44,30.27,30.14,9,3,0,0.00
2013-12-16,36.1,32.9,30.4,32.0,29.8,28.0,91,88,82,30.14,30.11,5,3,0,0.00
2013-12-17,54.0,48.9,45.0,36.0,34.5,33.0,62,58,51,30.19,30.18,2,0,0,0.00
2013-12-18,67.2,50.9,34.8,46.0,39.1,31.0,88,67,36,30.17,29.89,16,6,0,0.00
2013-12-19,68.6,59.8,52.1,61.0,53.9,46.0,90,81,68,29.89,29.64,23,11,0,0.00
2013-12-20,65.7,49.7,32.0,62.0,47.3,31.0,95,91,80,29.76,29.65,17,8,0,0.13
2013-12-21,50.2,39.3,31.9,49.0,38.1,30.0,100,95,94,29.72,29.43,15,5,0,1.97
2013-12-22,39.9,33.5,28.0,36.0,28.5,24.0,96,82,66,30.33,29.73,17,8,0,0.00
2013-12-23,42.8,30.8,24.9,30.0,25.2,22.0,89,80,60,30.50,30.31,11,2,0,0.00
2013-12-24,47.5,33.8,20.9,34.0,27.4,19.0,91,78,58,30.50,30.19,15,6,0,0.00
2013-12-25,50.0,38.7,30.6,41.0,32.6,27.0,91,79,61,30.34,30.19,12,4,0,0.00
2013-12-26,53.3,36.9,25.1,38.0,30.4,23.0,94,79,43,30.38,30.26,6,1,0,0.00
2013-12-27,56.0,40.1,26.7,41.0,32.3,25.0,94,76,47,30.37,30.25,6,1,0,0.01
2013-12-28,58.0,45.3,33.0,43.0,37.1,31.0,93,75,51,30.25,29.88,12,4,0,0.00
2013-12-29,47.9,36.2,28.6,41.0,30.1,21.0,90,79,72,30.21,29.85,23,8,0,0.00
2013-12-30,39.1,29.6,21.8,23.0,19.8,16.0,85,67,50,30.35,30.18,11,3,0,0.00
2013-12-31,51.0,36.0,20.2,29.0,24.3,16.0,87,65,42,30.37,30.12,13,4,0,0.00
2014-1-1,63.6,44.2,28.3,46.0,34.0,22.0,86,69,52,30.12,29.77,22,10,0,0.00
2014-1-2,38.2,27.7,20.7,21.0,17.7,15.0,84,67,47,30.39,30.12,21,9,0,0.00